Elmas current weather conditions

sailwx.info

Wind from 210 at 5 knots

Air temperature 29.0° C
Visibility: greater than 5.4 NM
Dewpoint 23.0° C

Last reported at 2015-Aug-01 08:20 UTC.
Time now 2015-Aug-01 09:50 UTC

Location: N 39°15' E 009°03'.
View on Google Maps.

See reports from other nearby stations

  
Tides and Currents Weather Stations Pressure Air Temp Water Temp Dewpoint Dewpoint Depression Visibility Wind Speed Wind Dir Waves Ship Positions
date/time (UTC)wind fromknots sea level pressurealtimeterstation pressurevisibilityair tempwater tempwave heightnotes
2015-Aug-01 08:20 210 5 5.429.0
2015-Aug-01 07:50 5.428.0
2015-Aug-01 07:20 5.427.0 Light rain.
2015-Aug-01 06:50 5.427.0 Light rain.
2015-Aug-01 06:20 050 3 26.0
2015-Aug-01 05:50 360 7 25.0
2015-Aug-01 05:20 320 6 24.0
2015-Aug-01 04:50 280 7 24.0
2015-Aug-01 04:20 310 4 23.0
2015-Aug-01 03:50 300 4 23.0
2015-Aug-01 03:20 320 4 23.0
2015-Aug-01 02:50 320 4 24.0
2015-Aug-01 02:20 090 3 25.0
2015-Aug-01 01:50 020 3 25.0
2015-Aug-01 01:20 140 3 26.0
2015-Aug-01 00:50 150 4 26.0
2015-Aug-01 00:20 140 5 26.0
2015-Jul-31 23:50 150 7 27.0
2015-Jul-31 23:20 150 5 26.0
2015-Jul-31 22:50 170 8 27.0
2015-Jul-31 22:20 160 7 27.0
2015-Jul-31 21:50 160 7 27.0
2015-Jul-31 21:20 160 7 27.0
2015-Jul-31 20:50 180 11 27.0
2015-Jul-31 20:20 170 11 27.0
2015-Jul-31 19:50 170 12 27.0
2015-Jul-31 19:20 160 9 27.0
2015-Jul-31 18:50 150 6 27.0
2015-Jul-31 18:20 130 6 28.0
2015-Jul-31 17:50 140 9 28.0
2015-Jul-31 17:20 130 9 28.0
2015-Jul-31 16:50 130 9 29.0
2015-Jul-31 16:20 130 8 29.0
2015-Jul-31 15:50 130 10 30.0
2015-Jul-31 15:20 130 10 30.0
2015-Jul-31 14:50 130 10 30.0
2015-Jul-31 14:20 130 11 30.0
2015-Jul-31 13:50 140 12 30.0
2015-Jul-31 13:20 140 13 31.0
2015-Jul-31 12:50 150 14 30.0
2015-Jul-31 12:20 160 15 31.0
2015-Jul-31 11:50 160 14 31.0
2015-Jul-31 11:20 230 6 35.0
2015-Jul-31 10:50 310 5 35.0
2015-Jul-31 10:20 320 8 35.0
2015-Jul-31 09:50 330 10 33.0
2015-Jul-31 09:20 320 11 32.0
2015-Jul-31 08:50 330 9 31.0
2015-Jul-31 08:20 330 11 30.0
2015-Jul-31 07:50 330 10 29.0
2015-Jul-31 07:20 330 12 28.0
2015-Jul-31 06:50 330 11 27.0
2015-Jul-31 06:20 320 9 25.0
2015-Jul-31 05:50 320 9 25.0
2015-Jul-31 05:20 320 7 24.0
2015-Jul-31 04:50 330 8 23.0
2015-Jul-31 04:20 320 7 23.0
2015-Jul-31 03:50 320 7 23.0
2015-Jul-31 03:20 330 10 24.0
2015-Jul-31 02:50 330 7 24.0
2015-Jul-31 02:20 320 9 24.0
2015-Jul-31 01:50 300 8 24.0
2015-Jul-31 01:20 300 6 24.0
2015-Jul-31 00:50 010 3 25.0
2015-Jul-31 00:20 010 4 25.0
2015-Jul-30 23:50 360 6 25.0
2015-Jul-30 23:20 320 7 25.0
2015-Jul-30 22:50 26.0
2015-Jul-30 22:20 170 6 27.0
2015-Jul-30 21:50 26.0
2015-Jul-30 21:20 26.0
2015-Jul-30 20:50 270 4 27.0
2015-Jul-30 20:20 27.0
2015-Jul-30 19:50 050 5 5.428.0
2015-Jul-30 19:20 100 9 5.427.0
2015-Jul-30 18:50 150 7 27.0
2015-Jul-30 18:20 160 7 28.0
2015-Jul-30 17:50 150 5 29.0
2015-Jul-30 17:20 180 6 28.0
2015-Jul-30 16:50 140 6 30.0
2015-Jul-30 16:20 120 6 5.429.0
2015-Jul-30 15:50 160 7 5.430.0
2015-Jul-30 15:20 140 7 5.430.0
2015-Jul-30 14:50 140 8 5.429.0
2015-Jul-30 14:20 150 7 5.429.0
2015-Jul-30 13:50 140 10 5.429.0
2015-Jul-30 13:20 140 11 29.0
2015-Jul-30 12:50 140 12 29.0
2015-Jul-30 12:20 150 14 29.0
2015-Jul-30 11:50 160 11 31.0
2015-Jul-30 11:20 150 11 31.0
2015-Jul-30 10:50 160 9 33.0
2015-Jul-30 10:20 130 5 33.0
2015-Jul-30 09:50 190 5 32.0
2015-Jul-30 09:20 230 6 32.0